Starlink 5577

operational
NORAD ID: 55751 Int'l Des: 2023-028 Owner: SPXS Country: US Constellation: starlink
LEOCIRCULAR

About Starlink 5577

Description loading...

Live Position

Loading 3D Globe...

Upcoming Passes

Altitude History

Altitude vs Time

uPlot chart will show altitude changes over time

Two-Line Element Set

1 55751U 23028L 25306.14968594 .00000255 00000-0 29125-4 0 9995
2 55751 69.9987 206.1187 0002925 272.3561 87.7263 14.98335494146938
Epoch: Nov 2, 2025 • Age: 21 hours

Current Status

Altitude 579.3 km
Velocity 7.57 km/s
Sub-Earth Point 43.05°N, 171.72°E
Launch Date Mar 3, 2023
Age 2.6 years
Type internet

Technical Details

Classification Payload
Mass 305.00 kg
Dry Mass 290.00 kg
Total Mass 305.00 kg
Length 0.20 m
Diameter 2.80 m
Span 9.00 m
Shape Box + pan
Manufacturer SPXS
Bus Type Starlink
Phase Status In Orbit
Owner/State SPXS/US

Large Constellations

Loading constellations...